Location: Berlin
(38.3226°N, 75.2177°W)
Time: 18:19:13
(UTC+00:00)

Cosmos 1833 Rocket - Pass Details

Date: 26 October 2020
Orbit: 832 x 840 km, 71.0° (Epoch: 03 December)

Event Time Altitude Azimuth Distance (km) Brightness Sun altitude
Exits shadow 10:50:59 - 254° (WSW) 2,958 5.0 -6.6°
Reaches altitude 10° 10:52:54 10° 267° (W) 2,452 4.5 -6.3°
Maximum altitude 10:56:31 17° 308° (NW) 1,993 4.1 -5.6°
Drops below altitude 10° 11:00:10 10° 348° (NNW) 2,462 4.9 -4.9°
Sets 11:03:31 0° 8° (N) 3,401 5.8 -4.2°
